Location: Newark
(47.7394°N, 8.0008°E)
Time: 05:14:28
(UTC+00:00)

N. Korean satellite - Pass Details

Date: 22 December 2019
Orbit: 454 x 508 km, 97.2° (Epoch: 20 January)

Event Time Altitude Azimuth Distance (km) Brightness Sun altitude
Rises 04:34:40 0° 26° (NNE) 2,504 10.4 -25.6°
Reaches altitude 10° 04:37:06 10° 43° (NE) 1,615 9.6 -25.2°
Maximum altitude 04:39:46 20° 93° (E) 1,103 9.2 -24.8°
Drops below altitude 10° 04:42:23 10° 144° (SE) 1,593 9.7 -24.3°
Sets 04:44:46 0° 161° (SSE) 2,457 10.5 -23.9°
